STARLINK-5727, 55587

Orbit data source: Space-Track

STARLINK-5727, 55587 is a payload satellite owned by SpaceX/Seattle (US) in LEO that was launched on Sun, 12 Feb 2023 UTC via an FALCON 9 launch vehicle from the Air Force Eastern Test Range (AFETR). Payload-class satellites include a variety of spacecraft equipped with specific instruments for various scientific and technological missions. These include communications satellites like Starlink; space stations such as the ISS; scientific satellites like the Hubble; Earth observation satellites from companies like Planet Labs, Umbra, and HawkEye 360; GPS; miniature CubeSats for education and research; and military/defense satellites.

Loading next visibility...
Identifier
55587, 2023-020U
Orbit
LEO
Country
Flag of USUS
Related business
Manufacturer
SpaceX/Seattle
Mission
Operational Commercial Communications
Bus & Motor
STARLINK, Unknown motor
Mass
305 kg wet, ~290 kg dry
Launch date (UTC)
2023-02-12 (3 years ago)
Launch vehicle
FALCON 9
Launch site
Air Force Eastern Test Range (AFETR)
Object type
Payload
Rocket body
Debris
Shape & HBR
Box + 1 Pan, 10.1 m
Radar Cross Section
13.562 m², Large (>1 m²)

Expand to show TLE details & history
Last TLE update: 12 hours ago

TLE from 12 hours ago
0 STARLINK-5727
1 55587U 23020U   26199.73952281 -.00000082  00000-0  65368-5 0  9995
2 55587  43.0041 345.1591 0001658 264.2890  95.7773 15.27575557188951
Epoch: 2026-07-18T17:44Z
TLE epoch observation values (Epoch: 2026-07-18T17:44:54.770Z)
Latitude
-0.00001°
Longitude
142.38293°
Altitude
482.953 km
Speed
7.626 km/s
True Right ascension
23h 00m 38s
True Declination
0° 00' 00"
Sunlit
Object was in full shadow at epoch
Visualization orbit readout
Latitude
Unknown
Longitude
Unknown
Altitude
Unknown
Speed
Unknown
Apparent Right ascension
Unknown
Apparent Declination
Unknown
Sunlit
N/A
Visualization observer readout
Local Sidereal Time
18:48:23
Azimuth
Unknown
Elevation
Unknown
Doppler factor
Unknown
Orbital elements
Apogee altitude
486.145 km
Perigee altitude
483.869 km
Semi-major axis
6,863.144 km
Eccentricity
0.00017
Inclination
43.0041°
RAAN
345.1591°
Arg. of periapsis
264.289°
True anomaly
95.7962°
Mean anomaly
95.7773°
Eccentric anomaly
95.78675°
Mean motion
3.81732 °/min
Orbital period
94.31 mins
BSTAR
0.0000065368
Loading maneuver chart data...
Computing Atmospheric mass density...
Loading historical data...
Loading historical data...
Loading historical data...
Loading historical data...
Loading historical data...
Loading historical data...
Loading historical data...

Documentation

Showing up to 5 results
|